Home   Weather   Sandpoint   Past weeks

Flag for USA Past Weather in Sandpoint, Idaho, USA — Yesterday and Last 2 Weeks

Now
79 °F

Sunny.


Feels Like: 78 °F
Forecast: 46 / 75 °F
Wind: 7 mph from Southwest

Location: Sandpoint Airport

Current Time: Sep 27, 2016 at 3:29:27 PM

Latest Report: Sep 27, 2016 at 2:55 PM


Visibility: 10 mi

Pressure: 30.01 "Hg (27.91 "Hg at 636m altitude)

Humidity: 28%

Dew Point: 43 °F

Location of SandpointLocation

Past Weather in Sandpoint — Graph

°F

Sandpoint Temperature Yesterday

Maximum temperature yesterday: 73 °F (at 2:55 PM)
Minimum temperature yesterday: 37 °F (at 6:35 AM)
Average temperature yesterday: 54 °F

High & Low Weather Summary for the Past Weeks

 TemperatureHumidityPressure
High79 °F (Sep 16, 4:15 PM)100% (Sep 13, 2:15 AM)30.44 "Hg (Sep 13, 2:15 AM)
Low30 °F (Sep 13, 6:35 AM)19% (Sep 15, 4:35 PM)29.81 "Hg (Sep 17, 9:35 PM)
Average53 °F69%30.07 "Hg
* Reported Sep 12 2:15 PM — Sep 27 2:15 PM, Sandpoint, Weather by CustomWeather, © 2016

Note: Actual official high and low records may vary slightly from our data, if they occured in-between our weather recording intervals... More about our weather records

Advertising

Sandpoint Weather History for the Previous 24 Hours

Scroll right to see more
 ConditionsComfort  
Time TempWeatherWind HumidityBarometerVisibility
2:15 PM
Tue, Sep 27
77 °FSunny.7 mph34%30.01 "Hg10 mi
1:55 PM77 °FSunny.10 mph34%30.01 "Hg10 mi
1:35 PM75 °FSunny.No wind39%30.02 "Hg10 mi
1:15 PM73 °FSunny.8 mph44%30.02 "Hg10 mi
12:55 PM72 °FSunny.8 mph47%30.02 "Hg10 mi
12:35 PM72 °FSunny.5 mph50%30.03 "Hg10 mi
12:15 PM70 °FSunny.6 mph53%30.03 "Hg10 mi
11:55 AM70 °FSunny.7 mph53%30.04 "Hg10 mi
11:35 AM70 °FSunny.6 mph53%30.04 "Hg10 mi
11:15 AM68 °FSunny.6 mph56%30.05 "Hg10 mi
10:55 AM68 °FSunny.5 mph56%30.05 "Hg10 mi
10:35 AM66 °FSunny.7 mph60%30.05 "Hg10 mi
10:15 AM64 °FSunny.3 mph64%30.05 "Hg10 mi
9:55 AM61 °FSunny.3 mph72%30.05 "Hg10 mi
9:35 AM59 °FSunny.No wind72%30.05 "Hg10 mi
9:15 AM55 °FSunny.No wind82%30.06 "Hg10 mi
8:55 AM54 °FSunny.No wind88%30.05 "Hg10 mi
8:35 AM52 °FSunny.No wind94%30.05 "Hg10 mi
8:15 AM50 °FSunny.No wind100%30.05 "Hg10 mi
7:55 AM46 °FSunny.No wind100%30.04 "Hg10 mi
7:35 AM45 °FSunny.No wind100%30.04 "Hg10 mi
7:15 AM41 °FFog.No wind100%30.04 "Hg1 mi
6:55 AM43 °FFog.No wind100%30.04 "Hg1 mi
6:35 AM43 °FFog.No wind100%30.03 "Hg1 mi
6:15 AM43 °FPassing clouds.No wind100%30.03 "Hg7 mi
5:55 AM41 °FFog.No wind100%30.03 "Hg1 mi
5:35 AM43 °FFog.No wind100%30.02 "Hg1 mi
5:15 AM43 °FClear.No wind100%30.02 "Hg10 mi
4:55 AM43 °FFog.No wind100%30.02 "Hg2 mi
4:35 AM43 °FClear.No wind100%30.02 "Hg10 mi
4:15 AM43 °FClear.No wind100%30.02 "Hg10 mi
3:55 AM43 °FClear.No wind100%30.02 "Hg10 mi
3:15 AM43 °FClear.3 mph100%30.02 "Hg10 mi
2:55 AM45 °FClear.No wind100%30.02 "Hg10 mi
2:15 AM45 °FClear.No wind100%30.02 "Hg10 mi
1:55 AM45 °FClear.No wind100%30.02 "Hg10 mi
1:15 AM46 °FClear.No wind100%30.03 "Hg10 mi
12:55 AM46 °FClear.No wind100%30.03 "Hg10 mi
12:15 AM46 °FClear.No wind100%30.03 "Hg10 mi
11:55 PM
Mon, Sep 26
46 °FClear.No wind100%30.03 "Hg10 mi
11:35 PM46 °FClear.No wind100%30.03 "Hg10 mi
11:15 PM48 °FClear.No wind94%30.04 "Hg10 mi
10:55 PM48 °FClear.No wind94%30.04 "Hg10 mi
10:35 PM48 °FClear.No wind94%30.04 "Hg10 mi
10:15 PM50 °FClear.No wind94%30.04 "Hg10 mi
9:55 PM50 °FClear.No wind100%30.04 "Hg10 mi
9:15 PM52 °FClear.No wind94%30.04 "Hg10 mi
8:55 PM52 °FClear.No wind94%30.05 "Hg10 mi
8:35 PM54 °FClear.No wind88%30.05 "Hg10 mi
8:15 PM54 °FClear.No wind88%30.05 "Hg10 mi
7:55 PM55 °FClear.No wind88%30.05 "Hg10 mi
7:35 PM59 °FClear.No wind72%30.06 "Hg10 mi
7:15 PM55 °FClear.No wind88%30.06 "Hg10 mi
6:55 PM59 °FClear.No wind77%30.06 "Hg10 mi
6:35 PM61 °FClear.No wind72%30.06 "Hg10 mi
6:15 PM66 °FSunny.No wind56%30.07 "Hg10 mi
5:55 PM68 °FSunny.No wind53%30.07 "Hg10 mi
5:15 PM72 °FSunny.No wind44%30.09 "Hg10 mi
4:55 PM73 °FSunny.No wind38%30.10 "Hg10 mi
4:35 PM73 °FSunny.No wind38%30.11 "Hg10 mi
4:15 PM73 °FSunny.No wind36%30.12 "Hg10 mi
3:55 PM73 °FSunny.No wind36%30.13 "Hg10 mi
3:35 PM73 °FSunny.No wind38%30.14 "Hg10 mi
3:15 PM72 °FSunny.3 mph38%30.15 "Hg10 mi
Weather by CustomWeather, © 2016

See weather overviewHow to use our weather pages